<?xml version="1.0" encoding="UTF-8" standalone="no" ?>
<gpx xmlns="http://www.topografix.com/GPX/1/1" xmlns:xsi="http://www.w3.org/2001/XMLSchema-instance" xsi:schemaLocation="http://www.topografix.com/GPX/1/1 http://www.topografix.com/GPX/1/1/gpx.xsd" version="1.1" creator="VisuGPX - https://www.visugpx.com">
  <metadata>
    <name>46-Cournou </name>
    <desc><![CDATA[Randonnée du 17/11/2016 10,5Km D270m]]></desc>
  </metadata>
  <trk>
    <name><![CDATA[2016-11-17-Cournou-10,5 km, 270 m]]></name>
    <trkseg>
      <trkpt lat="44.44586" lon="1.33017">
        <ele>279.2</ele>
        <time>2016-10-14T09:31:24Z</time>
      </trkpt>
      <trkpt lat="44.44603" lon="1.33017">
        <ele>277.8</ele>
        <time>2016-10-14T09:31:24Z</time>
      </trkpt>
      <trkpt lat="44.4462" lon="1.32994">
        <ele>277</ele>
        <time>2016-10-14T09:31:24Z</time>
      </trkpt>
      <trkpt lat="44.44632" lon="1.32972">
        <ele>276.3</ele>
        <time>2016-10-14T09:31:24Z</time>
      </trkpt>
      <trkpt lat="44.44646" lon="1.32944">
        <ele>275.7</ele>
        <time>2016-10-14T09:31:24Z</time>
      </trkpt>
      <trkpt lat="44.44658" lon="1.3291">
        <ele>275.2</ele>
        <time>2016-10-14T09:31:24Z</time>
      </trkpt>
      <trkpt lat="44.44667" lon="1.32875">
        <ele>273</ele>
        <time>2016-10-14T09:31:24Z</time>
      </trkpt>
      <trkpt lat="44.44675" lon="1.32842">
        <ele>270.9</ele>
        <time>2016-10-14T09:31:24Z</time>
      </trkpt>
      <trkpt lat="44.4472" lon="1.32862">
        <ele>268.5</ele>
        <time>2016-10-14T09:31:24Z</time>
      </trkpt>
      <trkpt lat="44.44765" lon="1.32885">
        <ele>266.5</ele>
        <time>2016-10-14T09:31:24Z</time>
      </trkpt>
      <trkpt lat="44.44806" lon="1.32911">
        <ele>266.9</ele>
        <time>2016-10-14T09:31:24Z</time>
      </trkpt>
      <trkpt lat="44.44849" lon="1.32938">
        <ele>268.9</ele>
        <time>2016-10-14T09:31:24Z</time>
      </trkpt>
      <trkpt lat="44.44875" lon="1.32987">
        <ele>273.4</ele>
        <time>2016-10-14T09:31:24Z</time>
      </trkpt>
      <trkpt lat="44.44891" lon="1.33021">
        <ele>276</ele>
        <time>2016-10-14T09:31:24Z</time>
      </trkpt>
      <trkpt lat="44.44894" lon="1.33069">
        <ele>277.3</ele>
        <time>2016-10-14T09:31:24Z</time>
      </trkpt>
      <trkpt lat="44.44891" lon="1.33128">
        <ele>278.5</ele>
        <time>2016-10-14T09:31:24Z</time>
      </trkpt>
      <trkpt lat="44.4488" lon="1.3319">
        <ele>280.1</ele>
        <time>2016-10-14T09:31:24Z</time>
      </trkpt>
      <trkpt lat="44.44869" lon="1.3325">
        <ele>282.4</ele>
        <time>2016-10-14T09:31:24Z</time>
      </trkpt>
      <trkpt lat="44.4492" lon="1.33278">
        <ele>284.6</ele>
        <time>2016-10-14T09:31:24Z</time>
      </trkpt>
      <trkpt lat="44.44967" lon="1.33291">
        <ele>288.3</ele>
        <time>2016-10-14T09:31:24Z</time>
      </trkpt>
      <trkpt lat="44.45008" lon="1.33281">
        <ele>290.3</ele>
        <time>2016-10-14T09:31:24Z</time>
      </trkpt>
      <trkpt lat="44.45052" lon="1.33283">
        <ele>291.7</ele>
        <time>2016-10-14T09:31:24Z</time>
      </trkpt>
      <trkpt lat="44.4511" lon="1.33288">
        <ele>292.8</ele>
        <time>2016-10-14T09:31:24Z</time>
      </trkpt>
      <trkpt lat="44.45169" lon="1.33297">
        <ele>293.6</ele>
        <time>2016-10-14T09:31:24Z</time>
      </trkpt>
      <trkpt lat="44.45229" lon="1.33305">
        <ele>297</ele>
        <time>2016-10-14T09:31:24Z</time>
      </trkpt>
      <trkpt lat="44.45289" lon="1.3331">
        <ele>298</ele>
        <time>2016-10-14T09:31:24Z</time>
      </trkpt>
      <trkpt lat="44.45349" lon="1.33314">
        <ele>296.9</ele>
        <time>2016-10-14T09:31:24Z</time>
      </trkpt>
      <trkpt lat="44.45409" lon="1.3332">
        <ele>294.6</ele>
        <time>2016-10-14T09:31:24Z</time>
      </trkpt>
      <trkpt lat="44.45471" lon="1.33328">
        <ele>295.3</ele>
        <time>2016-10-14T09:31:24Z</time>
      </trkpt>
      <trkpt lat="44.45515" lon="1.33332">
        <ele>295.5</ele>
        <time>2016-10-14T09:31:24Z</time>
      </trkpt>
      <trkpt lat="44.45565" lon="1.3332">
        <ele>294</ele>
        <time>2016-10-14T09:31:24Z</time>
      </trkpt>
      <trkpt lat="44.45615" lon="1.33313">
        <ele>294.7</ele>
        <time>2016-10-14T09:31:24Z</time>
      </trkpt>
      <trkpt lat="44.45669" lon="1.33315">
        <ele>296.4</ele>
        <time>2016-10-14T09:31:24Z</time>
      </trkpt>
      <trkpt lat="44.45722" lon="1.33324">
        <ele>300.5</ele>
        <time>2016-10-14T09:31:24Z</time>
      </trkpt>
      <trkpt lat="44.45765" lon="1.33345">
        <ele>302.7</ele>
        <time>2016-10-14T09:31:24Z</time>
      </trkpt>
      <trkpt lat="44.45802" lon="1.33317">
        <ele>303.3</ele>
        <time>2016-10-14T09:31:24Z</time>
      </trkpt>
      <trkpt lat="44.45867" lon="1.33284">
        <ele>302.7</ele>
        <time>2016-10-14T09:31:24Z</time>
      </trkpt>
      <trkpt lat="44.45937" lon="1.33245">
        <ele>299.4</ele>
        <time>2016-10-14T09:31:24Z</time>
      </trkpt>
      <trkpt lat="44.4599" lon="1.33216">
        <ele>293.8</ele>
        <time>2016-10-14T09:31:24Z</time>
      </trkpt>
      <trkpt lat="44.46011" lon="1.33194">
        <ele>291.9</ele>
        <time>2016-10-14T09:31:24Z</time>
      </trkpt>
      <trkpt lat="44.46032" lon="1.33165">
        <ele>290.4</ele>
        <time>2016-10-14T09:31:24Z</time>
      </trkpt>
      <trkpt lat="44.46069" lon="1.33143">
        <ele>286.2</ele>
        <time>2016-10-14T09:31:24Z</time>
      </trkpt>
      <trkpt lat="44.46119" lon="1.33134">
        <ele>283.4</ele>
        <time>2016-10-14T09:31:24Z</time>
      </trkpt>
      <trkpt lat="44.46173" lon="1.33122">
        <ele>281.9</ele>
        <time>2016-10-14T09:31:24Z</time>
      </trkpt>
      <trkpt lat="44.46226" lon="1.33104">
        <ele>280.1</ele>
        <time>2016-10-14T09:31:24Z</time>
      </trkpt>
      <trkpt lat="44.46268" lon="1.33078">
        <ele>281.1</ele>
        <time>2016-10-14T09:31:24Z</time>
      </trkpt>
      <trkpt lat="44.46308" lon="1.33042">
        <ele>281.3</ele>
        <time>2016-10-14T09:31:24Z</time>
      </trkpt>
      <trkpt lat="44.46345" lon="1.33019">
        <ele>281.6</ele>
        <time>2016-10-14T09:31:24Z</time>
      </trkpt>
      <trkpt lat="44.46394" lon="1.33008">
        <ele>284</ele>
        <time>2016-10-14T09:31:24Z</time>
      </trkpt>
      <trkpt lat="44.46452" lon="1.33008">
        <ele>286.6</ele>
        <time>2016-10-14T09:31:24Z</time>
      </trkpt>
      <trkpt lat="44.46494" lon="1.33001">
        <ele>288.7</ele>
        <time>2016-10-14T09:31:24Z</time>
      </trkpt>
      <trkpt lat="44.46529" lon="1.32995">
        <ele>286.8</ele>
        <time>2016-10-14T09:31:24Z</time>
      </trkpt>
      <trkpt lat="44.46539" lon="1.32956">
        <ele>286.3</ele>
        <time>2016-10-14T09:31:24Z</time>
      </trkpt>
      <trkpt lat="44.46563" lon="1.32928">
        <ele>286.9</ele>
        <time>2016-10-14T09:31:24Z</time>
      </trkpt>
      <trkpt lat="44.46623" lon="1.32917">
        <ele>284.7</ele>
        <time>2016-10-14T09:31:24Z</time>
      </trkpt>
      <trkpt lat="44.46652" lon="1.32866">
        <ele>284.4</ele>
        <time>2016-10-14T09:31:24Z</time>
      </trkpt>
      <trkpt lat="44.46681" lon="1.3282">
        <ele>283.6</ele>
        <time>2016-10-14T09:31:24Z</time>
      </trkpt>
      <trkpt lat="44.46726" lon="1.32778">
        <ele>280.4</ele>
        <time>2016-10-14T09:31:24Z</time>
      </trkpt>
      <trkpt lat="44.46761" lon="1.32723">
        <ele>275.8</ele>
        <time>2016-10-14T09:31:24Z</time>
      </trkpt>
      <trkpt lat="44.46801" lon="1.32661">
        <ele>260.9</ele>
        <time>2016-10-14T09:31:24Z</time>
      </trkpt>
      <trkpt lat="44.46819" lon="1.32631">
        <ele>253.9</ele>
        <time>2016-10-14T09:31:24Z</time>
      </trkpt>
      <trkpt lat="44.46824" lon="1.32535">
        <ele>249.5</ele>
        <time>2016-10-14T09:31:24Z</time>
      </trkpt>
      <trkpt lat="44.46834" lon="1.3246">
        <ele>244.6</ele>
        <time>2016-10-14T09:31:24Z</time>
      </trkpt>
      <trkpt lat="44.46841" lon="1.3241">
        <ele>240.7</ele>
        <time>2016-10-14T09:31:24Z</time>
      </trkpt>
      <trkpt lat="44.46845" lon="1.32385">
        <ele>238.6</ele>
        <time>2016-10-14T09:31:24Z</time>
      </trkpt>
      <trkpt lat="44.46864" lon="1.32354">
        <ele>231</ele>
        <time>2016-10-14T09:31:24Z</time>
      </trkpt>
      <trkpt lat="44.46877" lon="1.32304">
        <ele>223.8</ele>
        <time>2016-10-14T09:31:24Z</time>
      </trkpt>
      <trkpt lat="44.46887" lon="1.32286">
        <ele>219.5</ele>
        <time>2016-10-14T09:31:24Z</time>
      </trkpt>
      <trkpt lat="44.46906" lon="1.32267">
        <ele>213.7</ele>
        <time>2016-10-14T09:31:24Z</time>
      </trkpt>
      <trkpt lat="44.46921" lon="1.32237">
        <ele>208.5</ele>
        <time>2016-10-14T09:31:24Z</time>
      </trkpt>
      <trkpt lat="44.46938" lon="1.32197">
        <ele>199.8</ele>
        <time>2016-10-14T09:31:24Z</time>
      </trkpt>
      <trkpt lat="44.4695" lon="1.32181">
        <ele>195</ele>
        <time>2016-10-14T09:31:24Z</time>
      </trkpt>
      <trkpt lat="44.47001" lon="1.32148">
        <ele>178.5</ele>
        <time>2016-10-14T09:31:24Z</time>
      </trkpt>
      <trkpt lat="44.47065" lon="1.32045">
        <ele>153.7</ele>
        <time>2016-10-14T09:31:24Z</time>
      </trkpt>
      <trkpt lat="44.47084" lon="1.32043">
        <ele>149</ele>
        <time>2016-10-14T09:31:24Z</time>
      </trkpt>
      <trkpt lat="44.47097" lon="1.32061">
        <ele>148.8</ele>
        <time>2016-10-14T09:31:24Z</time>
      </trkpt>
      <trkpt lat="44.47102" lon="1.32103">
        <ele>149.8</ele>
        <time>2016-10-14T09:31:24Z</time>
      </trkpt>
      <trkpt lat="44.47113" lon="1.32146">
        <ele>149.9</ele>
        <time>2016-10-14T09:31:24Z</time>
      </trkpt>
      <trkpt lat="44.47123" lon="1.32126">
        <ele>148.2</ele>
        <time>2016-10-14T09:31:24Z</time>
      </trkpt>
      <trkpt lat="44.47139" lon="1.31977">
        <ele>144.5</ele>
        <time>2016-10-14T09:31:24Z</time>
      </trkpt>
      <trkpt lat="44.47165" lon="1.32021">
        <ele>143.1</ele>
        <time>2016-10-14T09:31:24Z</time>
      </trkpt>
      <trkpt lat="44.47239" lon="1.32075">
        <ele>140.5</ele>
        <time>2016-10-14T09:31:24Z</time>
      </trkpt>
      <trkpt lat="44.47307" lon="1.32129">
        <ele>139.1</ele>
        <time>2016-10-14T09:31:24Z</time>
      </trkpt>
      <trkpt lat="44.47377" lon="1.32204">
        <ele>139.3</ele>
        <time>2016-10-14T09:31:24Z</time>
      </trkpt>
      <trkpt lat="44.47415" lon="1.32237">
        <ele>138.7</ele>
        <time>2016-10-14T09:31:24Z</time>
      </trkpt>
      <trkpt lat="44.47394" lon="1.32291">
        <ele>141.3</ele>
        <time>2016-10-14T09:31:24Z</time>
      </trkpt>
      <trkpt lat="44.47384" lon="1.32328">
        <ele>143</ele>
        <time>2016-10-14T09:31:24Z</time>
      </trkpt>
      <trkpt lat="44.47377" lon="1.32372">
        <ele>144.4</ele>
        <time>2016-10-14T09:31:24Z</time>
      </trkpt>
      <trkpt lat="44.47377" lon="1.32421">
        <ele>145.5</ele>
        <time>2016-10-14T09:31:24Z</time>
      </trkpt>
      <trkpt lat="44.47375" lon="1.32455">
        <ele>146.2</ele>
        <time>2016-10-14T09:31:24Z</time>
      </trkpt>
      <trkpt lat="44.47371" lon="1.32504">
        <ele>147.1</ele>
        <time>2016-10-14T09:31:24Z</time>
      </trkpt>
      <trkpt lat="44.47372" lon="1.32548">
        <ele>148.2</ele>
        <time>2016-10-14T09:31:24Z</time>
      </trkpt>
      <trkpt lat="44.47353" lon="1.32579">
        <ele>148.9</ele>
        <time>2016-10-14T09:31:24Z</time>
      </trkpt>
      <trkpt lat="44.4734" lon="1.32611">
        <ele>149.7</ele>
        <time>2016-10-14T09:31:24Z</time>
      </trkpt>
      <trkpt lat="44.47337" lon="1.32645">
        <ele>150.5</ele>
        <time>2016-10-14T09:31:24Z</time>
      </trkpt>
      <trkpt lat="44.47337" lon="1.32682">
        <ele>151.2</ele>
        <time>2016-10-14T09:31:24Z</time>
      </trkpt>
      <trkpt lat="44.47324" lon="1.32723">
        <ele>151.9</ele>
        <time>2016-10-14T09:31:24Z</time>
      </trkpt>
      <trkpt lat="44.47305" lon="1.32771">
        <ele>153.1</ele>
        <time>2016-10-14T09:31:24Z</time>
      </trkpt>
      <trkpt lat="44.47279" lon="1.32817">
        <ele>154.9</ele>
        <time>2016-10-14T09:31:24Z</time>
      </trkpt>
      <trkpt lat="44.47244" lon="1.32861">
        <ele>157.5</ele>
        <time>2016-10-14T09:31:24Z</time>
      </trkpt>
      <trkpt lat="44.47188" lon="1.32894">
        <ele>161.4</ele>
        <time>2016-10-14T09:31:24Z</time>
      </trkpt>
      <trkpt lat="44.47156" lon="1.32914">
        <ele>164.3</ele>
        <time>2016-10-14T09:31:24Z</time>
      </trkpt>
      <trkpt lat="44.47127" lon="1.32942">
        <ele>169.3</ele>
        <time>2016-10-14T09:31:24Z</time>
      </trkpt>
      <trkpt lat="44.471" lon="1.32977">
        <ele>176.1</ele>
        <time>2016-10-14T09:31:24Z</time>
      </trkpt>
      <trkpt lat="44.47077" lon="1.33017">
        <ele>184.4</ele>
        <time>2016-10-14T09:31:24Z</time>
      </trkpt>
      <trkpt lat="44.47053" lon="1.33059">
        <ele>190.6</ele>
        <time>2016-10-14T09:31:24Z</time>
      </trkpt>
      <trkpt lat="44.47028" lon="1.33106">
        <ele>195.2</ele>
        <time>2016-10-14T09:31:24Z</time>
      </trkpt>
      <trkpt lat="44.47002" lon="1.3315">
        <ele>197.9</ele>
        <time>2016-10-14T09:31:24Z</time>
      </trkpt>
      <trkpt lat="44.46931" lon="1.33193">
        <ele>194.8</ele>
        <time>2016-10-14T09:31:24Z</time>
      </trkpt>
      <trkpt lat="44.4689" lon="1.33204">
        <ele>197.4</ele>
        <time>2016-10-14T09:31:24Z</time>
      </trkpt>
      <trkpt lat="44.46848" lon="1.33219">
        <ele>203.1</ele>
        <time>2016-10-14T09:31:24Z</time>
      </trkpt>
      <trkpt lat="44.46829" lon="1.3323">
        <ele>205.5</ele>
        <time>2016-10-14T09:31:24Z</time>
      </trkpt>
      <trkpt lat="44.46811" lon="1.33276">
        <ele>213</ele>
        <time>2016-10-14T09:31:24Z</time>
      </trkpt>
      <trkpt lat="44.46802" lon="1.33323">
        <ele>221.8</ele>
        <time>2016-10-14T09:31:24Z</time>
      </trkpt>
      <trkpt lat="44.46809" lon="1.33379">
        <ele>232.2</ele>
        <time>2016-10-14T09:31:24Z</time>
      </trkpt>
      <trkpt lat="44.46822" lon="1.33432">
        <ele>243.5</ele>
        <time>2016-10-14T09:31:24Z</time>
      </trkpt>
      <trkpt lat="44.46829" lon="1.33487">
        <ele>257.7</ele>
        <time>2016-10-14T09:31:24Z</time>
      </trkpt>
      <trkpt lat="44.46825" lon="1.33546">
        <ele>270.8</ele>
        <time>2016-10-14T09:31:24Z</time>
      </trkpt>
      <trkpt lat="44.4683" lon="1.3359">
        <ele>279.6</ele>
        <time>2016-10-14T09:31:24Z</time>
      </trkpt>
      <trkpt lat="44.4683" lon="1.33632">
        <ele>283.6</ele>
        <time>2016-10-14T09:31:24Z</time>
      </trkpt>
      <trkpt lat="44.46819" lon="1.33702">
        <ele>287.1</ele>
        <time>2016-10-14T09:31:24Z</time>
      </trkpt>
      <trkpt lat="44.46851" lon="1.33682">
        <ele>286.6</ele>
        <time>2016-10-14T09:31:24Z</time>
      </trkpt>
      <trkpt lat="44.46879" lon="1.33672">
        <ele>286.3</ele>
        <time>2016-10-14T09:31:24Z</time>
      </trkpt>
      <trkpt lat="44.46907" lon="1.33679">
        <ele>285.6</ele>
        <time>2016-10-14T09:31:24Z</time>
      </trkpt>
      <trkpt lat="44.46943" lon="1.33669">
        <ele>283.1</ele>
        <time>2016-10-14T09:31:24Z</time>
      </trkpt>
      <trkpt lat="44.46958" lon="1.33681">
        <ele>280.9</ele>
        <time>2016-10-14T09:31:24Z</time>
      </trkpt>
      <trkpt lat="44.46978" lon="1.33684">
        <ele>278.6</ele>
        <time>2016-10-14T09:31:24Z</time>
      </trkpt>
      <trkpt lat="44.47001" lon="1.33673">
        <ele>276.5</ele>
        <time>2016-10-14T09:31:24Z</time>
      </trkpt>
      <trkpt lat="44.47021" lon="1.33646">
        <ele>274</ele>
        <time>2016-10-14T09:31:24Z</time>
      </trkpt>
      <trkpt lat="44.47045" lon="1.33627">
        <ele>271.9</ele>
        <time>2016-10-14T09:31:24Z</time>
      </trkpt>
      <trkpt lat="44.47068" lon="1.33611">
        <ele>270.9</ele>
        <time>2016-10-14T09:31:24Z</time>
      </trkpt>
      <trkpt lat="44.47092" lon="1.33626">
        <ele>265.1</ele>
        <time>2016-10-14T09:31:24Z</time>
      </trkpt>
      <trkpt lat="44.47099" lon="1.33648">
        <ele>260</ele>
        <time>2016-10-14T09:31:24Z</time>
      </trkpt>
      <trkpt lat="44.47094" lon="1.3367">
        <ele>256.7</ele>
        <time>2016-10-14T09:31:24Z</time>
      </trkpt>
      <trkpt lat="44.47099" lon="1.33695">
        <ele>252.3</ele>
        <time>2016-10-14T09:31:24Z</time>
      </trkpt>
      <trkpt lat="44.47107" lon="1.33722">
        <ele>246.3</ele>
        <time>2016-10-14T09:31:24Z</time>
      </trkpt>
      <trkpt lat="44.47105" lon="1.33752">
        <ele>242.3</ele>
        <time>2016-10-14T09:31:24Z</time>
      </trkpt>
      <trkpt lat="44.47098" lon="1.3377">
        <ele>244.7</ele>
        <time>2016-10-14T09:31:24Z</time>
      </trkpt>
      <trkpt lat="44.47103" lon="1.33797">
        <ele>242.2</ele>
        <time>2016-10-14T09:31:24Z</time>
      </trkpt>
      <trkpt lat="44.4711" lon="1.33829">
        <ele>238.9</ele>
        <time>2016-10-14T09:31:24Z</time>
      </trkpt>
      <trkpt lat="44.47115" lon="1.33846">
        <ele>237.7</ele>
        <time>2016-10-14T09:31:24Z</time>
      </trkpt>
      <trkpt lat="44.47127" lon="1.33878">
        <ele>236</ele>
        <time>2016-10-14T09:31:24Z</time>
      </trkpt>
      <trkpt lat="44.4714" lon="1.33907">
        <ele>234</ele>
        <time>2016-10-14T09:31:24Z</time>
      </trkpt>
      <trkpt lat="44.47144" lon="1.33941">
        <ele>234.4</ele>
        <time>2016-10-14T09:31:24Z</time>
      </trkpt>
      <trkpt lat="44.47135" lon="1.3397">
        <ele>237.9</ele>
        <time>2016-10-14T09:31:24Z</time>
      </trkpt>
      <trkpt lat="44.47132" lon="1.33993">
        <ele>239.3</ele>
        <time>2016-10-14T09:31:24Z</time>
      </trkpt>
      <trkpt lat="44.4714" lon="1.34023">
        <ele>234.9</ele>
        <time>2016-10-14T09:31:24Z</time>
      </trkpt>
      <trkpt lat="44.47138" lon="1.3404">
        <ele>233.5</ele>
        <time>2016-10-14T09:31:24Z</time>
      </trkpt>
      <trkpt lat="44.47132" lon="1.34051">
        <ele>233.7</ele>
        <time>2016-10-14T09:31:24Z</time>
      </trkpt>
      <trkpt lat="44.47121" lon="1.34044">
        <ele>237.8</ele>
        <time>2016-10-14T09:31:24Z</time>
      </trkpt>
      <trkpt lat="44.47103" lon="1.34039">
        <ele>243</ele>
        <time>2016-10-14T09:31:24Z</time>
      </trkpt>
      <trkpt lat="44.47084" lon="1.3403">
        <ele>249.1</ele>
        <time>2016-10-14T09:31:24Z</time>
      </trkpt>
      <trkpt lat="44.47062" lon="1.34013">
        <ele>253.3</ele>
        <time>2016-10-14T09:31:24Z</time>
      </trkpt>
      <trkpt lat="44.47042" lon="1.33995">
        <ele>257.8</ele>
        <time>2016-10-14T09:31:24Z</time>
      </trkpt>
      <trkpt lat="44.47027" lon="1.33977">
        <ele>260.8</ele>
        <time>2016-10-14T09:31:24Z</time>
      </trkpt>
      <trkpt lat="44.4701" lon="1.33971">
        <ele>263.7</ele>
        <time>2016-10-14T09:31:24Z</time>
      </trkpt>
      <trkpt lat="44.46994" lon="1.33953">
        <ele>267</ele>
        <time>2016-10-14T09:31:24Z</time>
      </trkpt>
      <trkpt lat="44.46993" lon="1.33927">
        <ele>269.8</ele>
        <time>2016-10-14T09:31:24Z</time>
      </trkpt>
      <trkpt lat="44.46979" lon="1.33913">
        <ele>271.2</ele>
        <time>2016-10-14T09:31:24Z</time>
      </trkpt>
      <trkpt lat="44.46959" lon="1.33899">
        <ele>272</ele>
        <time>2016-10-14T09:31:24Z</time>
      </trkpt>
      <trkpt lat="44.46943" lon="1.33888">
        <ele>272.9</ele>
        <time>2016-10-14T09:31:24Z</time>
      </trkpt>
      <trkpt lat="44.46925" lon="1.33862">
        <ele>275.4</ele>
        <time>2016-10-14T09:31:24Z</time>
      </trkpt>
      <trkpt lat="44.46906" lon="1.33871">
        <ele>274.4</ele>
        <time>2016-10-14T09:31:24Z</time>
      </trkpt>
      <trkpt lat="44.46886" lon="1.33865">
        <ele>274.1</ele>
        <time>2016-10-14T09:31:24Z</time>
      </trkpt>
      <trkpt lat="44.46867" lon="1.33865">
        <ele>273.3</ele>
        <time>2016-10-14T09:31:24Z</time>
      </trkpt>
      <trkpt lat="44.46857" lon="1.33879">
        <ele>270.2</ele>
        <time>2016-10-14T09:31:24Z</time>
      </trkpt>
      <trkpt lat="44.46835" lon="1.33885">
        <ele>267.3</ele>
        <time>2016-10-14T09:31:24Z</time>
      </trkpt>
      <trkpt lat="44.46816" lon="1.33895">
        <ele>266.3</ele>
        <time>2016-10-14T09:31:24Z</time>
      </trkpt>
      <trkpt lat="44.468" lon="1.33902">
        <ele>266.2</ele>
        <time>2016-10-14T09:31:24Z</time>
      </trkpt>
      <trkpt lat="44.46767" lon="1.3391">
        <ele>266.9</ele>
        <time>2016-10-14T09:31:24Z</time>
      </trkpt>
      <trkpt lat="44.46741" lon="1.33931">
        <ele>263.6</ele>
        <time>2016-10-14T09:31:24Z</time>
      </trkpt>
      <trkpt lat="44.46704" lon="1.33955">
        <ele>264</ele>
        <time>2016-10-14T09:31:24Z</time>
      </trkpt>
      <trkpt lat="44.46676" lon="1.33952">
        <ele>270.6</ele>
        <time>2016-10-14T09:31:24Z</time>
      </trkpt>
      <trkpt lat="44.46651" lon="1.33945">
        <ele>276.6</ele>
        <time>2016-10-14T09:31:24Z</time>
      </trkpt>
      <trkpt lat="44.46611" lon="1.33916">
        <ele>286.4</ele>
        <time>2016-10-14T09:31:24Z</time>
      </trkpt>
      <trkpt lat="44.4659" lon="1.33913">
        <ele>289.3</ele>
        <time>2016-10-14T09:31:24Z</time>
      </trkpt>
      <trkpt lat="44.46567" lon="1.33922">
        <ele>290.1</ele>
        <time>2016-10-14T09:31:24Z</time>
      </trkpt>
      <trkpt lat="44.46541" lon="1.33929">
        <ele>290.5</ele>
        <time>2016-10-14T09:31:24Z</time>
      </trkpt>
      <trkpt lat="44.46514" lon="1.33936">
        <ele>290.8</ele>
        <time>2016-10-14T09:31:24Z</time>
      </trkpt>
      <trkpt lat="44.46499" lon="1.33942">
        <ele>290.6</ele>
        <time>2016-10-14T09:31:24Z</time>
      </trkpt>
      <trkpt lat="44.46488" lon="1.33931">
        <ele>291.8</ele>
        <time>2016-10-14T09:31:24Z</time>
      </trkpt>
      <trkpt lat="44.46487" lon="1.33909">
        <ele>293.4</ele>
        <time>2016-10-14T09:31:24Z</time>
      </trkpt>
      <trkpt lat="44.46477" lon="1.33881">
        <ele>294</ele>
        <time>2016-10-14T09:31:24Z</time>
      </trkpt>
      <trkpt lat="44.46473" lon="1.33869">
        <ele>294.3</ele>
        <time>2016-10-14T09:31:24Z</time>
      </trkpt>
      <trkpt lat="44.46469" lon="1.33865">
        <ele>294.4</ele>
        <time>2016-10-14T09:31:24Z</time>
      </trkpt>
      <trkpt lat="44.46461" lon="1.33868">
        <ele>294.4</ele>
        <time>2016-10-14T09:31:24Z</time>
      </trkpt>
      <trkpt lat="44.46456" lon="1.3388">
        <ele>294.2</ele>
        <time>2016-10-14T09:31:24Z</time>
      </trkpt>
      <trkpt lat="44.46461" lon="1.33892">
        <ele>293.9</ele>
        <time>2016-10-14T09:31:24Z</time>
      </trkpt>
      <trkpt lat="44.46465" lon="1.33905">
        <ele>293.7</ele>
        <time>2016-10-14T09:31:24Z</time>
      </trkpt>
      <trkpt lat="44.4647" lon="1.3393">
        <ele>292.1</ele>
        <time>2016-10-14T09:31:24Z</time>
      </trkpt>
      <trkpt lat="44.46457" lon="1.33948">
        <ele>290.5</ele>
        <time>2016-10-14T09:31:24Z</time>
      </trkpt>
      <trkpt lat="44.46447" lon="1.33957">
        <ele>289.8</ele>
        <time>2016-10-14T09:31:24Z</time>
      </trkpt>
      <trkpt lat="44.4643" lon="1.33969">
        <ele>288.8</ele>
        <time>2016-10-14T09:31:24Z</time>
      </trkpt>
      <trkpt lat="44.46415" lon="1.33984">
        <ele>287.7</ele>
        <time>2016-10-14T09:31:24Z</time>
      </trkpt>
      <trkpt lat="44.46401" lon="1.33999">
        <ele>286.8</ele>
        <time>2016-10-14T09:31:24Z</time>
      </trkpt>
      <trkpt lat="44.46387" lon="1.34011">
        <ele>284.3</ele>
        <time>2016-10-14T09:31:24Z</time>
      </trkpt>
      <trkpt lat="44.46375" lon="1.34024">
        <ele>281.6</ele>
        <time>2016-10-14T09:31:24Z</time>
      </trkpt>
      <trkpt lat="44.46363" lon="1.34041">
        <ele>278.2</ele>
        <time>2016-10-14T09:31:24Z</time>
      </trkpt>
      <trkpt lat="44.46353" lon="1.34048">
        <ele>277.1</ele>
        <time>2016-10-14T09:31:24Z</time>
      </trkpt>
      <trkpt lat="44.46339" lon="1.34062">
        <ele>275.3</ele>
        <time>2016-10-14T09:31:24Z</time>
      </trkpt>
      <trkpt lat="44.46325" lon="1.34081">
        <ele>272.9</ele>
        <time>2016-10-14T09:31:24Z</time>
      </trkpt>
      <trkpt lat="44.46312" lon="1.34104">
        <ele>270.1</ele>
        <time>2016-10-14T09:31:24Z</time>
      </trkpt>
      <trkpt lat="44.463" lon="1.34131">
        <ele>267.4</ele>
        <time>2016-10-14T09:31:24Z</time>
      </trkpt>
      <trkpt lat="44.46289" lon="1.34167">
        <ele>263.9</ele>
        <time>2016-10-14T09:31:24Z</time>
      </trkpt>
      <trkpt lat="44.46279" lon="1.34207">
        <ele>261</ele>
        <time>2016-10-14T09:31:24Z</time>
      </trkpt>
      <trkpt lat="44.4626" lon="1.34293">
        <ele>257.4</ele>
        <time>2016-10-14T09:31:24Z</time>
      </trkpt>
      <trkpt lat="44.46255" lon="1.34319">
        <ele>256.8</ele>
        <time>2016-10-14T09:31:24Z</time>
      </trkpt>
      <trkpt lat="44.46252" lon="1.34351">
        <ele>258.2</ele>
        <time>2016-10-14T09:31:24Z</time>
      </trkpt>
      <trkpt lat="44.46252" lon="1.34417">
        <ele>265.5</ele>
        <time>2016-10-14T09:31:24Z</time>
      </trkpt>
      <trkpt lat="44.46202" lon="1.3433">
        <ele>272.2</ele>
        <time>2016-10-14T09:31:24Z</time>
      </trkpt>
      <trkpt lat="44.46154" lon="1.34253">
        <ele>288.5</ele>
        <time>2016-10-14T09:31:24Z</time>
      </trkpt>
      <trkpt lat="44.46101" lon="1.34168">
        <ele>292.6</ele>
        <time>2016-10-14T09:31:24Z</time>
      </trkpt>
      <trkpt lat="44.46055" lon="1.34091">
        <ele>296.6</ele>
        <time>2016-10-14T09:31:24Z</time>
      </trkpt>
      <trkpt lat="44.46026" lon="1.33989">
        <ele>299.7</ele>
        <time>2016-10-14T09:31:24Z</time>
      </trkpt>
      <trkpt lat="44.45999" lon="1.33873">
        <ele>299.4</ele>
        <time>2016-10-14T09:31:24Z</time>
      </trkpt>
      <trkpt lat="44.45979" lon="1.33811">
        <ele>298.1</ele>
        <time>2016-10-14T09:31:24Z</time>
      </trkpt>
      <trkpt lat="44.45963" lon="1.33765">
        <ele>297.6</ele>
        <time>2016-10-14T09:31:24Z</time>
      </trkpt>
      <trkpt lat="44.45957" lon="1.33713">
        <ele>296.2</ele>
        <time>2016-10-14T09:31:24Z</time>
      </trkpt>
      <trkpt lat="44.45946" lon="1.33664">
        <ele>295.1</ele>
        <time>2016-10-14T09:31:24Z</time>
      </trkpt>
      <trkpt lat="44.45933" lon="1.33616">
        <ele>294</ele>
        <time>2016-10-14T09:31:24Z</time>
      </trkpt>
      <trkpt lat="44.45915" lon="1.33571">
        <ele>294.2</ele>
        <time>2016-10-14T09:31:24Z</time>
      </trkpt>
      <trkpt lat="44.45896" lon="1.3353">
        <ele>295.4</ele>
        <time>2016-10-14T09:31:24Z</time>
      </trkpt>
      <trkpt lat="44.45875" lon="1.33497">
        <ele>296.7</ele>
        <time>2016-10-14T09:31:24Z</time>
      </trkpt>
      <trkpt lat="44.45852" lon="1.33462">
        <ele>298.9</ele>
        <time>2016-10-14T09:31:24Z</time>
      </trkpt>
      <trkpt lat="44.45829" lon="1.33427">
        <ele>301.3</ele>
        <time>2016-10-14T09:31:24Z</time>
      </trkpt>
      <trkpt lat="44.45804" lon="1.33393">
        <ele>301.7</ele>
        <time>2016-10-14T09:31:24Z</time>
      </trkpt>
      <trkpt lat="44.45772" lon="1.33358">
        <ele>302.2</ele>
        <time>2016-10-14T09:31:24Z</time>
      </trkpt>
      <trkpt lat="44.45722" lon="1.33324">
        <ele>300.5</ele>
        <time>2016-10-14T09:31:24Z</time>
      </trkpt>
      <trkpt lat="44.45669" lon="1.33315">
        <ele>296.4</ele>
        <time>2016-10-14T09:31:24Z</time>
      </trkpt>
      <trkpt lat="44.45615" lon="1.33313">
        <ele>294.7</ele>
        <time>2016-10-14T09:31:24Z</time>
      </trkpt>
      <trkpt lat="44.45565" lon="1.3332">
        <ele>294</ele>
        <time>2016-10-14T09:31:24Z</time>
      </trkpt>
      <trkpt lat="44.45515" lon="1.33332">
        <ele>295.5</ele>
        <time>2016-10-14T09:31:24Z</time>
      </trkpt>
      <trkpt lat="44.45454" lon="1.33326">
        <ele>295</ele>
        <time>2016-10-14T09:31:24Z</time>
      </trkpt>
      <trkpt lat="44.45409" lon="1.3332">
        <ele>294.6</ele>
        <time>2016-10-14T09:31:24Z</time>
      </trkpt>
      <trkpt lat="44.45349" lon="1.33314">
        <ele>296.9</ele>
        <time>2016-10-14T09:31:24Z</time>
      </trkpt>
      <trkpt lat="44.45289" lon="1.3331">
        <ele>298</ele>
        <time>2016-10-14T09:31:24Z</time>
      </trkpt>
      <trkpt lat="44.45229" lon="1.33305">
        <ele>297</ele>
        <time>2016-10-14T09:31:24Z</time>
      </trkpt>
      <trkpt lat="44.45169" lon="1.33297">
        <ele>293.6</ele>
        <time>2016-10-14T09:31:24Z</time>
      </trkpt>
      <trkpt lat="44.4511" lon="1.33288">
        <ele>292.8</ele>
        <time>2016-10-14T09:31:24Z</time>
      </trkpt>
      <trkpt lat="44.45052" lon="1.33283">
        <ele>291.7</ele>
        <time>2016-10-14T09:31:24Z</time>
      </trkpt>
      <trkpt lat="44.45008" lon="1.33281">
        <ele>290.3</ele>
        <time>2016-10-14T09:31:24Z</time>
      </trkpt>
      <trkpt lat="44.44967" lon="1.33291">
        <ele>288.3</ele>
        <time>2016-10-14T09:31:24Z</time>
      </trkpt>
      <trkpt lat="44.4492" lon="1.33278">
        <ele>284.6</ele>
        <time>2016-10-14T09:31:24Z</time>
      </trkpt>
      <trkpt lat="44.44869" lon="1.3325">
        <ele>282.4</ele>
        <time>2016-10-14T09:31:24Z</time>
      </trkpt>
      <trkpt lat="44.44825" lon="1.33229">
        <ele>281.6</ele>
        <time>2016-10-14T09:31:24Z</time>
      </trkpt>
      <trkpt lat="44.44778" lon="1.33212">
        <ele>284.2</ele>
        <time>2016-10-14T09:31:24Z</time>
      </trkpt>
      <trkpt lat="44.4473" lon="1.33207">
        <ele>285</ele>
        <time>2016-10-14T09:31:24Z</time>
      </trkpt>
      <trkpt lat="44.44681" lon="1.33209">
        <ele>283.1</ele>
        <time>2016-10-14T09:31:24Z</time>
      </trkpt>
      <trkpt lat="44.44651" lon="1.33201">
        <ele>281.7</ele>
        <time>2016-10-14T09:31:24Z</time>
      </trkpt>
      <trkpt lat="44.44637" lon="1.33172">
        <ele>279.4</ele>
        <time>2016-10-14T09:31:24Z</time>
      </trkpt>
      <trkpt lat="44.44631" lon="1.3313">
        <ele>276.8</ele>
        <time>2016-10-14T09:31:24Z</time>
      </trkpt>
      <trkpt lat="44.44629" lon="1.3307">
        <ele>274.6</ele>
        <time>2016-10-14T09:31:24Z</time>
      </trkpt>
      <trkpt lat="44.44617" lon="1.3306">
        <ele>275.6</ele>
        <time>2016-10-14T09:31:24Z</time>
      </trkpt>
      <trkpt lat="44.44597" lon="1.33059">
        <ele>277</ele>
        <time>2016-10-14T09:31:24Z</time>
      </trkpt>
      <trkpt lat="44.44581" lon="1.33061">
        <ele>278</ele>
        <time>2016-10-14T09:31:24Z</time>
      </trkpt>
      <trkpt lat="44.44567" lon="1.3304">
        <ele>279.6</ele>
        <time>2016-10-14T09:31:24Z</time>
      </trkpt>
      <trkpt lat="44.44586" lon="1.33017">
        <ele>279.2</ele>
        <time>2016-10-14T09:31:24Z</time>
      </trkpt>
    </trkseg>
  </trk>
</gpx>